{"data":{"norad_id":53017,"intl_designator":"2022-076AH","name":"STARLINK-4281","alt_names":[],"object_type":"PAYLOAD","status":"ACTIVE","operator":null,"country":"US","launch_date":"2022-07-07","launch_site_code":"AFETR","launch_vehicle":null,"mission":null,"orbit_class":"UNKNOWN","rcs_meters":null,"size_class":null,"mass_kg":null,"dimensions":null,"purposes":["comms"],"wikipedia_slug":null,"has_3d_model":false,"image_url":null,"decayed_at":null,"tle_current":{"epoch":"2026-09-19T14:15:34.598880Z","epoch_age_seconds":147139,"freshness":"FRESH","line1":"1 53017U 22076AH  26262.59415045 -.00000514  00000+0 -63965-5 0  9999","line2":"2 53017  53.1859 252.8719 0001067  89.7022 270.4100 15.26524255232845","mean_motion":15.26524255,"eccentricity":0.0001067,"inclination_deg":53.1859,"raan_deg":252.8719,"arg_perigee_deg":89.7022,"mean_anomaly_deg":270.41,"bstar":-6.3965e-6,"rev_number":23284,"period_min":94.331943648023,"perigee_km":485.47977212516,"apogee_km":486.94462424405,"semimajor_km":6864.3491981846,"source":"CELESTRAK","updated_at":"2026-09-20T09:00:40.145353Z"}}}